Location: Eaton
(41.3139°N, 82.0207°W)
Time: 06:45:24
(UTC+00:00)

Cosmos 2173 Rocket - Visible Passes

Search period start: 26 October 2021 00:00
Search period end: 05 November 2021 00:00
Orbit: 945 x 1000 km, 83.0° (Epoch: 25 October)

Date Brightness Start Highest point End Pass type
(mag) Time Alt. Az. Time Alt. Az. Time Alt. Az.
26 Oct 4.2 00:09:42 10° SSE 00:15:31 45° E 00:21:26 10° NNE visible
26 Oct 5.7 01:55:49 10° SW 02:01:00 28° WNW 02:06:19 10° NNW visible
26 Oct 5.7 11:05:02 10° N 11:10:56 38° ENE 11:16:46 10° SE visible
26 Oct 5.6 22:54:29 10° E 22:55:44 11° ENE 22:57:00 10° ENE visible
27 Oct 3.8 00:33:43 10° S 00:39:54 80° E 00:46:13 10° N visible
27 Oct 6.5 02:22:22 10° WSW 02:26:00 16° WNW 02:29:41 10° NNW visible
27 Oct 5.1 23:15:20 10° SE 23:19:44 21° E 23:24:10 10° NE visible
28 Oct 4.5 00:58:21 10° SSW 01:04:28 59° W 01:10:41 10° N visible
28 Oct 6.7 10:09:58 10° NNE 10:14:11 18° ENE 10:18:22 10° ESE visible
28 Oct 4.4 23:38:18 10° SSE 23:43:54 37° E 23:49:34 10° NNE visible
29 Oct 5.5 01:23:38 10° SW 01:29:11 34° WNW 01:34:51 10° N visible
29 Oct 5.9 10:33:33 10° NNE 10:39:07 31° ENE 10:44:40 10° SE visible
30 Oct 3.9 00:02:06 10° S 00:08:14 66° E 00:14:29 10° NNE visible
30 Oct 6.3 01:49:45 10° WSW 01:54:06 19° WNW 01:58:32 10° NNW visible
30 Oct 4.9 10:57:38 10° N 11:03:53 54° ENE 11:10:05 10° SSE visible
30 Oct 5.3 22:44:27 10° ESE 22:48:12 17° E 22:51:58 10° NE visible
31 Oct 4.2 00:26:31 10° SSW 00:32:43 72° W 00:39:03 10° N visible
31 Oct 6.9 02:18:01 10° WNW 02:19:15 11° WNW 02:20:28 10° NW visible
31 Oct 6.8 09:38:53 10° NNE 09:42:17 15° ENE 09:45:40 10° E visible
31 Oct 4.1 11:22:04 10° N 11:28:29 88° W 11:34:49 10° S visible
31 Oct 4.7 23:07:01 10° SE 23:12:18 30° E 23:17:40 10° NNE visible
01 Nov 5.2 00:51:34 10° SW 00:57:23 41° WNW 01:03:20 10° N visible
01 Nov 6.2 10:02:06 10° NNE 10:07:19 26° ENE 10:12:27 10° SE visible
01 Nov 4.1 23:30:33 10° SSE 23:36:34 54° E 23:42:42 10° NNE visible
02 Nov 6.1 01:17:20 10° WSW 01:22:14 24° WNW 01:27:13 10° NNW visible
02 Nov 5.2 10:26:03 10° N 10:32:08 44° ENE 10:38:07 10° SSE visible
02 Nov 4.0 23:54:45 10° S 00:00:59 87° W 00:07:23 10° N visible
03 Nov 6.8 01:44:22 10° W 01:47:18 13° WNW 01:50:14 10° NW visible
03 Nov 6.9 09:08:11 10° NE 09:10:21 12° ENE 09:12:31 10° E visible
03 Nov 4.2 10:50:22 10° N 10:56:47 77° E 11:03:06 10° SSE visible
04 Nov 4.9 00:19:34 10° SSW 00:25:36 50° WNW 00:31:46 10° N visible
04 Nov 6.4 09:30:44 10° NNE 09:35:27 21° ENE 09:40:07 10° ESE visible
04 Nov 4.1 11:14:58 10° NNW 11:21:15 62° W 11:27:27 10° S visible
04 Nov 4.3 22:59:05 10° SSE 23:04:56 44° E 23:10:52 10° NNE visible
